Date String (YYYY-MM-DD hh:mm:ss) UTC,Instrument flags,absolute air pressure of the measurement (hPa),sample flow rate (lpm),inlet stack bypass flow (lpm),air temperature of the measurement (°C),ambient temperature measured by the external sensor (°C),aerosol sample conditioner tube jacket temperature (°C),OPC LED temperature (°C),internal box temperature (°C),relative humidity of the measurement (%),span deviation,mass concentration of particles derived from Lorenz-Mie calculation of OPC scattering (μg/m³),mass concentration of particles derived from Lorenz-Mie calculation of OPC scattering (μg/m³),mass concentration of particles derived from Lorenz-Mie calculation of OPC scattering (μg/m³)
DateTimeUTC,F1_M11,P_M11,Q1_M11,Q2_M11,T1_M11,T2_M11,T3_M11,T4_M11,T5_M11,U1_M11,ZSPAN_M11,X2_M11,X0_M11,X1_M11
2024-02-22 20:00:00,SystemResetWarning,0832.2,4.99,000.00,020.2,019.7,000.0,028.6,022.1,25.0,0000.0,0002.74,0003.38,0002.56
2024-02-22 20:01:00,SystemResetWarning,0832.2,5.00,000.00,020.2,019.7,000.0,028.6,022.1,25.0,0000.0,0002.64,0003.18,0002.48
2024-02-22 20:02:00,SystemResetWarning,0832.2,5.00,000.00,020.2,019.7,000.0,028.6,022.1,25.0,0000.0,0002.55,0003.08,0002.40
2024-02-22 20:03:00,SystemResetWarning,0832.2,5.00,000.00,020.2,019.8,000.0,028.6,022.1,25.0,0000.0,0002.49,0003.00,0002.32
2024-02-22 20:04:00,SystemResetWarning,0832.2,5.00,000.00,020.2,019.8,000.0,028.6,022.1,25.1,0000.0,0002.48,0003.01,0002.29
2024-02-22 20:05:00,SystemResetWarning,0832.1,5.00,000.00,020.2,019.8,000.0,028.7,022.1,25.1,0000.0,0002.47,0002.99,0002.26
2024-02-22 20:06:00,SystemResetWarning,0832.2,5.00,000.00,020.2,019.8,000.0,028.7,022.1,25.1,0000.0,0002.43,0002.88,0002.23
2024-02-22 20:07:00,SystemResetWarning,0832.2,5.00,000.00,020.3,019.8,000.0,028.7,022.1,25.1,0000.0,0002.40,0002.83,0002.20
2024-02-22 20:08:00,SystemResetWarning,0832.2,5.00,000.00,020.3,019.8,000.0,028.7,022.1,25.2,0000.0,0002.35,0002.78,0002.17
2024-02-22 20:09:00,SystemResetWarning,0832.2,5.00,000.00,020.3,019.8,000.0,028.7,022.1,25.2,0000.0,0002.35,0002.78,0002.16
2024-02-22 20:10:00,SystemResetWarning,0832.2,5.00,000.00,020.3,019.8,000.0,028.7,022.1,25.2,0000.0,0002.37,0002.79,0002.20
2024-02-22 20:11:00,SystemResetWarning,0832.1,5.00,000.00,020.3,019.8,000.0,028.7,022.1,25.2,0000.0,0002.37,0002.73,0002.24
2024-02-22 20:12:00,SystemResetWarning,0832.1,5.00,000.00,020.3,019.8,000.0,028.7,022.1,25.3,0000.0,0002.42,0002.78,0002.29
2024-02-22 20:13:00,SystemResetWarning,0832.1,5.00,000.00,020.3,019.8,000.0,028.7,022.1,25.3,0000.0,0002.48,0002.84,0002.36
2024-02-22 20:14:00,SystemResetWarning,0832.1,5.00,000.00,020.3,019.8,000.0,028.7,022.1,25.3,0000.0,0002.51,0002.86,0002.41
2024-02-22 20:15:00,SystemResetWarning,0832.0,5.00,000.00,020.3,019.8,000.0,028.7,022.1,25.3,0000.0,0002.52,0002.86,0002.44
2024-02-22 20:16:00,SystemResetWarning,0832.0,5.00,000.00,020.3,019.8,000.0,028.7,022.1,25.4,0000.0,0002.54,0002.87,0002.47
2024-02-22 20:17:00,SystemResetWarning,0832.1,5.00,000.00,020.3,019.8,000.0,028.7,022.1,26.1,0000.0,0002.58,0002.91,0002.52
2024-02-22 20:18:00,SystemResetWarning,0832.0,5.00,000.00,020.3,019.8,000.0,028.7,022.1,26.4,0000.0,0002.60,0002.90,0002.55
2024-02-22 20:19:00,SystemResetWarning,0832.1,5.00,000.00,020.3,019.8,000.0,028.7,022.1,26.0,0000.0,0002.65,0003.14,0002.60
2024-02-22 20:20:00,SystemResetWarning,0832.0,5.00,000.00,020.3,019.8,000.0,028.7,022.1,26.1,0000.0,0002.69,0003.20,0002.64
2024-02-22 20:21:00,SystemResetWarning,0832.0,5.00,000.00,020.3,019.7,000.0,028.7,022.0,26.1,0000.0,0002.70,0003.21,0002.65
2024-02-22 20:22:00,SystemResetWarning,0832.0,5.00,000.00,020.3,019.7,000.0,028.7,022.1,26.2,0000.0,0002.66,0003.20,0002.60
2024-02-22 20:23:00,SystemResetWarning,0832.0,5.00,000.00,020.3,019.7,000.0,028.7,022.1,26.4,0000.0,0002.57,0003.11,0002.50
2024-02-22 20:24:00,SystemResetWarning,0832.0,5.00,000.00,020.2,019.7,000.0,028.7,022.0,26.5,0000.0,0002.53,0003.10,0002.43
2024-02-22 20:25:00,SystemResetWarning,0832.0,5.00,000.00,020.2,019.7,000.0,028.7,022.0,26.7,0000.0,0002.49,0003.08,0002.38
2024-02-22 20:26:00,SystemResetWarning,0832.0,5.00,000.00,020.2,019.7,000.0,028.7,022.1,26.3,0000.0,0002.43,0003.00,0002.33
2024-02-22 20:27:00,SystemResetWarning,0832.0,5.00,000.00,020.2,019.7,000.0,028.7,022.1,25.8,0000.0,0002.36,0002.92,0002.27
2024-02-22 20:28:00,SystemResetWarning,0832.0,5.00,000.00,020.2,019.7,000.0,028.7,022.1,25.2,0000.0,0002.31,0002.88,0002.22
2024-02-22 20:29:00,SystemResetWarning,0832.0,5.00,000.00,020.2,019.7,000.0,028.7,022.1,25.0,0000.0,0002.27,0002.83,0002.17
2024-02-22 20:30:00,SystemResetWarning,0832.0,5.00,000.00,020.3,019.7,000.0,028.7,022.1,25.1,0000.0,0002.18,0002.59,0002.08
2024-02-22 20:31:00,SystemResetWarning,0832.0,5.01,000.00,020.3,019.7,000.0,028.7,022.1,24.8,0000.0,0002.11,0002.49,0001.99
2024-02-22 20:32:00,SystemResetWarning,0832.0,5.00,000.00,020.3,019.8,000.0,028.7,022.1,24.8,0000.0,0002.01,0002.41,0001.88
2024-02-22 20:33:00,SystemResetWarning,0832.0,5.00,000.00,020.3,019.8,000.0,028.7,022.1,24.8,0000.0,0001.94,0002.32,0001.83
2024-02-22 20:34:00,SystemResetWarning,0832.0,5.00,000.00,020.3,019.8,000.0,028.7,022.1,24.5,0000.0,0001.92,0002.28,0001.81
2024-02-22 20:35:00,SystemResetWarning,0832.0,5.00,000.00,020.3,019.8,000.0,028.7,022.1,24.6,0000.0,0001.85,0002.18,0001.77
2024-02-22 20:36:00,SystemResetWarning,0832.0,5.00,000.00,020.3,019.8,000.0,028.7,022.1,24.8,0000.0,0001.74,0002.06,0001.67
2024-02-22 20:37:00,SystemResetWarning,0832.0,5.00,000.00,020.3,019.8,000.0,028.7,022.1,24.5,0000.0,0001.65,0001.98,0001.57
2024-02-22 20:38:00,SystemResetWarning,0832.0,5.00,000.00,020.3,019.8,000.0,028.7,022.1,24.4,0000.0,0001.53,0001.86,0001.45
2024-02-22 20:39:00,SystemResetWarning,0832.0,5.00,000.00,020.3,019.8,000.0,028.7,022.1,24.3,0000.0,0001.42,0001.73,0001.34
2024-02-22 20:40:00,SystemResetWarning,0832.0,5.00,000.00,020.3,019.8,000.0,028.7,022.1,24.9,0000.0,0001.29,0001.59,0001.22
2024-02-22 20:41:00,SystemResetWarning,0832.0,5.00,000.00,020.3,019.8,000.0,028.7,022.1,25.4,0000.0,0001.19,0001.50,0001.11
2024-02-22 20:42:00,SystemResetWarning,0832.0,5.00,000.00,020.3,019.8,000.0,028.7,022.1,25.5,0000.0,0001.08,0001.33,0001.01
2024-02-22 20:43:00,SystemResetWarning,0832.0,5.00,000.00,020.3,019.8,000.0,028.7,022.1,25.1,0000.0,0000.98,0001.21,0000.92
2024-02-22 20:44:00,SystemResetWarning,0832.0,5.01,000.00,020.3,019.8,000.0,028.7,022.1,24.9,0000.0,0000.89,0001.13,0000.83
2024-02-22 20:45:00,SystemResetWarning,0832.0,5.00,000.00,020.3,019.8,000.0,028.7,022.1,24.9,0000.0,0000.82,0001.06,0000.76
2024-02-22 20:46:00,SystemResetWarning,0831.9,5.00,000.00,020.3,019.8,000.0,028.7,022.1,25.2,0000.0,0000.75,0000.96,0000.70
2024-02-22 20:47:00,SystemResetWarning,0831.9,5.00,000.00,020.3,019.8,000.0,028.7,022.1,25.0,0000.0,0000.70,0000.91,0000.65
2024-02-22 20:48:00,SystemResetWarning,0831.9,5.00,000.00,020.3,019.8,000.0,028.7,022.1,24.5,0000.0,0000.66,0000.84,0000.62
2024-02-22 20:49:00,SystemResetWarning,0831.9,5.00,000.00,020.3,019.8,000.0,028.7,022.1,25.1,0000.0,0000.65,0000.83,0000.61
2024-02-22 20:50:00,SystemResetWarning,0831.9,4.99,000.00,020.3,019.8,000.0,028.7,022.1,25.2,0000.0,0000.64,0000.82,0000.60
2024-02-22 20:51:00,SystemResetWarning,0831.9,5.00,000.00,020.3,019.8,000.0,028.7,022.1,24.8,0000.0,0000.64,0000.83,0000.60
2024-02-22 20:52:00,SystemResetWarning,0831.9,4.99,000.00,020.3,019.8,000.0,028.7,022.1,24.5,0000.0,0000.65,0000.84,0000.60
2024-02-22 20:53:00,SystemResetWarning,0831.9,5.00,000.00,020.3,019.8,000.0,028.7,022.1,25.1,0000.0,0000.65,0000.85,0000.60
2024-02-22 20:54:00,SystemResetWarning,0831.9,5.00,000.00,020.3,019.8,000.0,028.7,022.1,25.3,0000.0,0000.67,0000.90,0000.61
2024-02-22 20:55:00,SystemResetWarning,0831.9,4.99,000.00,020.3,019.8,000.0,028.7,022.1,25.3,0000.0,0000.69,0000.92,0000.62
2024-02-22 20:56:00,SystemResetWarning,0832.0,5.02,000.00,020.3,019.8,000.0,028.7,022.1,24.7,0000.0,0000.69,0000.91,0000.61
2024-02-22 20:57:00,SystemResetWarning,0831.9,5.00,000.00,020.3,019.8,000.0,028.7,022.1,24.7,0000.0,0000.69,0000.92,0000.61
2024-02-22 20:58:00,SystemResetWarning,0832.0,5.00,000.00,020.3,019.8,000.0,028.7,022.1,25.0,0000.0,0000.70,0000.93,0000.63
2024-02-22 20:59:00,SystemResetWarning,0832.0,5.00,000.00,020.3,019.8,000.0,028.7,022.1,24.9,0000.0,0000.75,0000.99,0000.66
